Location: Unspecified
(46.0725°N, 13.7344°E)
Time: 13:13:31

CZ-3 Stage 3 - Visible Passes

Search period start: 24 March 2018 00:00
Search period end: 03 April 2018 01:00
Orbit: 439 x 34757 km, 31.0° (Epoch: 23 March)

Date Brightness Start Highest point End Pass type
(mag) Time Alt. Az. Time Alt. Az. Time Alt. Az.
26 Mar 7.8 05:49:21 10° SSE 10:23:56 33° SSE 10:49:48 10° ESE visible
29 Mar 7.8 05:32:28 10° SSE 10:14:32 34° SSE 10:40:34 10° ESE visible
01 Apr 7.8 05:15:44 10° SSE 10:05:07 35° SSE 10:31:19 10° ESE visible
